Total_Precipitation_Accumulation
3.50 3.70 4.29 4.06 3.35 3.14 3.20 3.18 3.27 3.18 3.19 3.30 3.26 3.14 2.99 2.86 2.64 2.65 2.64 2.64 2.67 2.77 2.92 3.05 3.14 3.13 3.01 2.88 2.85 2.90 2.82 2.66 2.96 3.07 3.15 3.17 3.10 3.15 3.26 3.36 3.42 2.48 2.35
2.94 2.96 3.49 3.39 3.11 3.12 3.05 3.09 3.16 3.06 3.08 3.20 3.23 3.11 2.92 2.75 2.69 2.63 2.59 2.68 2.76 2.79 2.98 3.02 2.85 2.73 2.55 2.43 2.51 2.73 2.80 2.80 3.12 3.33 3.49 3.47 3.42 3.39 3.43 3.44 3.42 2.30 2.20
2.36 2.35 2.63 2.87 2.71 2.77 2.79 2.71 2.73 2.71 2.86 2.99 3.05 3.09 3.01 2.84 2.81 2.72 2.57 2.75 2.89 2.79 2.85 2.74 2.58 2.41 2.25 2.13 2.22 2.65 2.82 3.03 3.56 3.79 4.12 3.61 3.12 3.53 3.48 3.41 3.06 2.32 2.18
1.94 2.03 2.13 2.52 2.46 2.32 2.26 2.33 2.53 2.53 2.47 2.58 2.81 3.05 3.11 3.06 2.95 2.87 2.75 2.90 2.94 2.77 2.83 2.69 2.42 2.11 1.97 1.99 2.21 2.51 2.73 3.11 3.63 4.12 4.30 3.30 2.51 2.97 3.05 2.91 2.79 2.42 2.21
1.67 1.82 2.13 2.24 2.18 2.06 2.02 2.11 2.40 2.29 2.25 2.35 2.49 2.81 3.01 3.07 3.20 3.16 2.95 2.93 2.76 2.67 2.71 2.57 2.23 1.94 1.78 1.84 2.14 2.36 2.54 3.06 3.69 3.82 3.34 3.17 2.92 2.81 2.63 2.60 2.61 2.36 2.10
1.47 1.64 1.92 2.07 1.96 1.85 1.88 2.04 2.28 2.17 2.18 2.23 2.26 2.62 2.80 2.79 2.86 2.91 2.93 2.76 2.57 2.49 2.49 2.59 2.17 1.93 1.83 1.93 2.17 2.29 2.49 2.99 3.37 2.96 2.57 2.68 2.48 2.56 2.55 2.65 2.66 2.48 2.14
1.42 1.66 1.78 1.97 1.90 1.86 1.94 1.99 2.14 2.16 2.13 2.09 2.23 2.55 2.66 2.65 2.77 2.77 2.72 2.45 2.25 2.33 2.37 2.39 2.19 1.95 1.90 2.03 2.08 2.16 2.49 2.90 2.75 2.40 2.38 2.56 2.10 2.06 2.45 2.77 3.03 2.82 2.38
1.23 1.50 1.63 1.83 1.88 1.85 1.85 1.85 1.97 1.90 1.91 2.01 2.20 2.41 2.36 2.34 2.47 2.50 2.49 2.38 2.12 2.23 2.17 2.08 2.18 2.06 2.10 2.09 1.96 1.90 2.17 2.50 2.19 2.00 2.16 2.28 1.81 1.98 2.51 2.92 3.28 3.13 2.73
1.14 1.34 1.60 1.78 1.86 1.83 1.80 1.77 1.92 1.98 1.90 1.94 2.08 2.22 2.29 2.27 2.23 2.15 2.27 2.31 2.11 2.05 1.94 1.93 2.11 2.26 2.26 2.06 1.80 1.81 2.06 2.47 2.31 2.07 1.86 1.95 1.79 2.09 2.67 2.99 3.18 3.10 2.87
1.52 1.52 1.51 1.49 1.59 1.67 1.69 1.86 1.99 2.06 2.00 1.98 2.07 2.19 2.32 2.24 2.14 2.05 1.91 2.09 2.11 2.02 1.92 1.84 1.97 2.14 2.04 1.93 1.84 2.01 2.26 2.39 2.23 2.15 2.04 1.79 1.85 2.26 2.77 2.93 3.11 2.99 2.82
2.09 2.11 1.83 1.62 1.57 1.68 1.57 1.71 2.22 2.42 2.27 2.31 2.43 2.44 2.54 2.53 2.34 2.30 2.18 2.33 2.23 2.19 2.12 2.02 2.03 2.22 2.05 1.84 2.00 2.29 2.30 2.26 2.56 2.60 2.08 1.72 2.02 2.62 2.95 3.03 3.04 2.90 2.82
2.60 2.61 2.21 1.90 1.67 1.53 1.36 1.82 2.36 2.30 2.40 2.55 2.66 2.51 2.78 2.99 2.85 2.29 2.59 2.97 2.93 2.85 2.64 2.57 2.49 2.31 2.27 2.12 2.55 2.91 2.40 2.57 2.88 2.71 2.19 2.05 2.56 3.10 3.51 3.46 3.11 2.81 2.67
2.97 2.83 2.36 2.08 1.89 1.62 1.71 1.80 2.10 2.42 2.73 2.64 2.45 2.43 2.83 2.73 2.52 2.53 2.77 2.96 3.12 2.96 2.80 2.80 2.89 2.62 2.87 3.34 3.49 3.27 2.72 2.78 2.87 2.75 2.44 2.45 3.07 3.79 4.19 4.00 3.47 3.06 2.80
3.11 2.83 2.48 2.24 2.03 1.88 1.82 1.85 2.03 2.20 2.45 2.53 2.61 2.55 2.80 3.23 3.18 3.11 3.22 3.19 3.27 3.39 3.75 3.52 3.62 3.34 3.32 3.39 3.53 3.31 3.03 3.07 3.08 3.34 3.42 3.21 3.51 4.02 4.57 4.47 3.91 3.46 3.30
3.23 3.02 2.72 2.36 2.36 2.28 2.42 2.52 2.20 2.29 2.42 2.68 2.98 2.93 2.98 3.40 3.42 3.38 3.39 3.50 3.28 3.31 3.60 3.93 3.72 3.73 3.83 3.62 3.26 3.10 3.25 3.28 3.36 3.43 3.55 3.71 3.63 3.79 4.46 4.68 4.32 3.92 3.77
3.66 3.61 3.33 2.92 2.91 2.94 2.84 2.88 2.80 2.52 2.73 2.84 3.04 2.98 3.09 3.38 3.59 3.56 3.36 3.48 3.34 3.27 3.43 3.72 3.72 4.16 4.13 4.03 3.56 3.29 3.29 3.36 3.39 3.46 3.48 3.86 3.79 3.61 4.02 4.47 4.62 4.49 4.29
3.78 3.92 3.84 3.67 3.72 3.71 3.48 3.25 3.06 2.93 2.89 3.20 3.36 3.24 3.28 3.32 3.59 3.57 3.51 3.38 3.38 3.41 3.64 3.75 3.79 4.15 4.12 4.04 3.88 3.56 3.39 3.13 3.04 3.20 3.21 3.44 3.40 3.34 3.60 4.03 4.40 4.57 4.65
3.92 4.17 4.35 4.23 4.28 4.19 4.12 3.93 3.58 3.45 3.44 3.41 3.34 3.38 3.27 3.37 3.50 3.76 3.58 3.31 3.41 3.38 3.58 3.98 4.10 4.32 4.48 4.41 4.10 3.72 3.48 3.35 3.12 3.13 2.98 2.95 3.24 2.87 3.17 3.66 4.01 4.26 4.80
4.23 4.64 5.04 5.11 5.02 4.74 4.48 4.37 4.26 4.11 3.89 3.62 3.54 3.46 3.28 3.23 3.25 3.61 3.57 3.49 3.51 3.73 3.76 3.53 4.15 4.49 4.64 4.57 3.81 3.64 3.24 3.15 3.03 2.80 2.87 2.76 2.99 3.06 3.12 3.08 3.26 3.60 4.55
4.69 5.33 5.46 5.48 5.75 5.56 5.28 5.16 4.97 4.58 4.19 3.86 3.67 3.53 3.23 3.17 3.13 3.54 3.37 3.37 3.49 3.88 4.05 4.13 4.57 4.57 4.40 4.54 3.77 3.42 2.96 2.59 2.58 2.63 2.45 2.48 2.61 2.54 2.83 3.26 3.62 3.34 3.85
4.52 5.16 5.86 6.08 5.97 5.81 5.58 5.17 4.84 4.44 4.19 3.84 3.47 3.24 3.17 3.14 3.29 3.84 3.48 3.80 3.70 3.80 3.89 4.04 4.35 4.36 4.11 4.35 4.40 3.73 2.82 2.27 2.25 2.14 2.14 2.30 2.22 2.23 2.60 3.26 3.54 3.62 3.41
3.91 4.41 4.92 5.28 5.00 4.68 4.54 4.51 4.44 4.39 3.92 3.72 3.60 3.67 3.34 3.34 3.38 3.47 3.75 3.66 3.71 3.89 3.68 3.75 4.14 4.06 3.62 3.97 4.41 4.47 3.56 2.89 2.32 1.77 1.95 2.04 2.18 2.36 2.32 2.42 2.88 3.48 3.47
3.35 3.51 3.71 3.99 4.08 4.14 4.26 4.42 4.59 4.75 4.39 4.19 4.09 3.98 3.50 3.41 3.40 3.52 3.50 3.47 3.62 3.56 3.58 3.59 3.77 3.93 3.82 3.74 4.11 4.54 3.94 3.25 2.57 2.00 1.89 1.88 2.17 2.46 2.41 2.42 2.65 3.11 3.33
2.71 2.94 3.46 3.72 3.86 4.12 4.47 4.54 4.53 4.47 4.42 4.36 4.40 4.31 4.12 3.86 3.63 3.45 3.32 3.29 3.30 3.16 3.32 3.10 3.41 3.68 3.89 3.58 3.68 3.65 3.50 3.46 3.33 2.61 2.09 1.97 2.18 2.37 2.46 2.40 2.52 2.87 3.16
2.27 2.60 3.20 3.79 4.07 4.31 4.57 4.62 4.88 4.70 4.55 4.38 4.40 4.46 4.25 3.94 3.59 3.23 3.26 3.28 3.27 3.08 2.98 2.95 3.25 3.23 3.35 3.39 3.46 3.43 3.48 3.43 3.25 3.01 2.59 2.35 2.22 1.95 1.96 2.10 2.34 2.66 2.90
2.40 2.70 3.16 3.70 4.15 4.35 4.41 4.43 4.55 4.56 4.55 4.30 4.15 3.83 3.44 3.30 3.17 2.92 2.95 3.04 2.96 2.93 2.96 2.92 2.98 3.00 3.10 3.18 3.21 3.20 3.35 3.30 3.28 3.34 2.95 2.67 2.43 2.06 1.88 1.94 2.12 2.37 2.56